Weather in Zuyevo

Russia / Novgorod Oblast     59°11′01″N   31°32′03″E
temp.,
°C
wind,
m/s
gust,
m/s
humid.,
%
clouds,
%
prec.,
mm/h
press.,
hPa
HPBL,
m
9 december, thu
thu900:00−19wsw2210060 0.0 102615
03:00−20wsw1110068 0.0 102710
06:00−20wsw1110085 0.0 10279
09:00−20w1110089 0.0 10289
12:00−15ssw009779 0.0 102933
15:00−14s119861 0.0 10299
18:00−18s1110064 0.0 10309
21:00−19ese2110070 0.0 103022
10 december, fri
fri1000:00−20ese1110057 0.0 10319
03:00−18ese259815 0.0 103163
06:00−16ese28945 0.0 1030119
09:00−14ese3119281 0.0 1029198
12:00−10ese41386100 0.0 1029359
15:00−9se41482100 0.0 1027414
18:00−9ese4148241 0.0 1027398
21:00−9ese4148172 0.0 1027401
11 december, sat
sat1100:00−8se5148178 0.0 1027436
03:00−6se51581100 0.0 1026473
06:00−6se51482100 0.0 1026453
09:00−6se51484100 0.0 1026452
12:00−4se41388100 0.0 1026493
15:00−2se51389100 0.1 1026506
18:00−1se41289100 0.1 1026455
21:00−2se41289100 0.1 1027398
12 december, sun
sun1200:00−4se41287100 0.0 1027365
03:00−5se41286100 0.0 1026377
06:00−5se4138998 0.0 1026413
09:00−3se41291100 0.0 1025479
12:00−1sse41394100 0.3 1025571
15:00+1sse41396100 0.3 1025637
18:00+1s51298100 0.1 1026727
21:00+1ssw41097100 0.1 1027440
13 december, mon
mon1300:00+1ssw379797 0.0 1028375
03:00−1s269793 0.0 1029124
06:00−3sse1199100 0.0 102810
09:00−2ese1199100 0.1 102827
12:000ese14100100 0.6 1027254
15:000se129997 0.8 1026157
18:00−2se1398100 0.4 102681
21:00−2s139896 0.5 1026121